When you browse on this site, cookies collect data to enhance your experience and personalize the content and advertising you see.
Visit our Privacy Policy to learn more. By continuing to use the site, you agree to this use of cookies and data.
  • In Portugal
  • List of Countries
  • For 7 days
  • Water Temperature
  • Weather Map
  • Weather Widgets
  • user-avatar
    Login

    Hourly Weather Remich

    Today, 29 May, Friday

    Time Temperature Precipitation Wind Pressure Humidity
    00:00 +10°C° 0 mm 3 mps 746 mmHg 74%
    01:00 +9°C° 0 mm 3 mps 746 mmHg 76%
    02:00 +9°C° 0 mm 3 mps 746 mmHg 78%
    03:00 +8°C° 0 mm 2 mps 746 mmHg 80%
    04:00 +9°C° 0 mm 3 mps 746 mmHg 78%
    05:00 +11°C° 0 mm 3 mps 746 mmHg 75%
    06:00 +12°C° 0 mm 3 mps 746 mmHg 70%
    07:00 +14°C° 0 mm 3 mps 746 mmHg 64%
    08:00 +15°C° 0 mm 4 mps 746 mmHg 59%
    09:00 +18°C° 0 mm 4 mps 745 mmHg 53%
    10:00 +19°C° 0 mm 4 mps 745 mmHg 52%
    11:00 +19°C° 0 mm 4 mps 745 mmHg 50%
    12:00 +20°C° 0 mm 4 mps 745 mmHg 49%
    13:00 +20°C° 0 mm 4 mps 744 mmHg 49%
    14:00 +20°C° 0 mm 4 mps 743 mmHg 49%
    15:00 +20°C° 0 mm 4 mps 743 mmHg 49%
    16:00 +19°C° 0 mm 3 mps 743 mmHg 54%
    17:00 +18°C° 0 mm 3 mps 743 mmHg 58%
    18:00 +18°C° 0 mm 3 mps 742 mmHg 63%
    19:00 +16°C° 0 mm 2 mps 742 mmHg 65%
    20:00 +14°C° 0 mm 2 mps 742 mmHg 68%
    21:00 +12°C° 0 mm 2 mps 743 mmHg 70%
    22:00 +12°C° 0 mm 2 mps 743 mmHg 71%
    23:00 +10°C° 0 mm 3 mps 743 mmHg 72%

    Tomorrow, 30 May, Saturday

    Time Temperature Precipitation Wind Pressure Humidity
    00:00 +10°C° 0 mm 3 mps 743 mmHg 72%
    01:00 +9°C° 0 mm 3 mps 743 mmHg 74%
    02:00 +9°C° 0 mm 3 mps 743 mmHg 76%
    03:00 +8°C° 0 mm 3 mps 743 mmHg 78%
    04:00 +9°C° 0 mm 3 mps 743 mmHg 76%
    05:00 +10°C° 0 mm 3 mps 743 mmHg 73%
    06:00 +12°C° 0 mm 3 mps 743 mmHg 71%
    07:00 +13°C° 0 mm 4 mps 743 mmHg 65%
    08:00 +15°C° 0 mm 4 mps 743 mmHg 60%
    09:00 +17°C° 0 mm 5 mps 743 mmHg 54%
    10:00 +17°C° 0 mm 5 mps 743 mmHg 53%
    11:00 +19°C° 0 mm 5 mps 742 mmHg 51%
    12:00 +20°C° 0 mm 5 mps 742 mmHg 50%
    13:00 +20°C° 0 mm 5 mps 742 mmHg 49%
    14:00 +20°C° 0 mm 5 mps 742 mmHg 49%
    15:00 +20°C° 0 mm 5 mps 741 mmHg 49%
    16:00 +19°C° 0 mm 5 mps 741 mmHg 53%
    17:00 +18°C° 0 mm 4 mps 741 mmHg 57%
    18:00 +17°C° 0 mm 4 mps 741 mmHg 62%
    19:00 +14°C° 0 mm 4 mps 741 mmHg 63%
    20:00 +13°C° 0 mm 4 mps 742 mmHg 64%
    21:00 +11°C° 0 mm 4 mps 742 mmHg 65%
    22:00 +10°C° 0 mm 3 mps 742 mmHg 68%
    23:00 +9°C° 0 mm 3 mps 742 mmHg 71%

    Day after tomorrow, 31 May, Sunday

    Time Temperature Precipitation Wind Pressure Humidity
    00:00 +9°C° 0 mm 3 mps 742 mmHg 74%
    01:00 +8°C° 0 mm 3 mps 742 mmHg 77%
    02:00 +8°C° 0 mm 3 mps 742 mmHg 80%
    03:00 +7°C° 0 mm 3 mps 742 mmHg 83%
    04:00 +8°C° 0 mm 3 mps 742 mmHg 79%
    05:00 +10°C° 0 mm 3 mps 742 mmHg 75%
    06:00 +11°C° 0 mm 4 mps 742 mmHg 71%
    07:00 +12°C° 0 mm 4 mps 742 mmHg 66%
    08:00 +14°C° 0 mm 4 mps 742 mmHg 62%
    09:00 +15°C° 0 mm 5 mps 742 mmHg 58%
    10:00 +16°C° 0 mm 5 mps 742 mmHg 55%
    11:00 +17°C° 0 mm 5 mps 742 mmHg 52%
    12:00 +19°C° 0 mm 5 mps 742 mmHg 49%
    13:00 +19°C° 0 mm 5 mps 741 mmHg 49%
    14:00 +19°C° 0 mm 5 mps 741 mmHg 49%
    15:00 +20°C° 0 mm 5 mps 741 mmHg 49%
    16:00 +19°C° 0 mm 4 mps 741 mmHg 54%
    17:00 +18°C° 0 mm 4 mps 741 mmHg 59%
    18:00 +17°C° 0 mm 3 mps 741 mmHg 64%
    19:00 +16°C° 0 mm 3 mps 741 mmHg 66%
    20:00 +13°C° 0 mm 3 mps 741 mmHg 68%
    21:00 +12°C° 0 mm 3 mps 741 mmHg 70%
    22:00 +11°C° 0 mm 3 mps 741 mmHg 74%
    23:00 +10°C° 0 mm 3 mps 741 mmHg 77%

    1 June, Monday

    Time Temperature Precipitation Wind Pressure Humidity
    00:00 +10°C° 0 mm 3 mps 741 mmHg 81%
    01:00 +9°C° 0 mm 3 mps 741 mmHg 84%
    02:00 +9°C° 0 mm 3 mps 741 mmHg 87%
    03:00 +8°C° 0 mm 3 mps 741 mmHg 89%
    04:00 +10°C° 0 mm 3 mps 741 mmHg 86%
    05:00 +11°C° 0 mm 4 mps 741 mmHg 82%
    06:00 +12°C° 0 mm 4 mps 741 mmHg 78%
    07:00 +14°C° 0 mm 4 mps 742 mmHg 72%
    08:00 +17°C° 0 mm 4 mps 742 mmHg 65%
    09:00 +19°C° 0 mm 5 mps 742 mmHg 58%
    10:00 +20°C° 0 mm 5 mps 741 mmHg 56%
    11:00 +21°C° 0 mm 5 mps 741 mmHg 54%
    12:00 +22°C° 0 mm 5 mps 741 mmHg 52%
    13:00 +22°C° 0 mm 5 mps 741 mmHg 52%
    14:00 +22°C° 0 mm 5 mps 741 mmHg 51%
    15:00 +23°C° 0 mm 4 mps 741 mmHg 50%
    16:00 +22°C° 0 mm 4 mps 740 mmHg 55%
    17:00 +21°C° 0 mm 3 mps 740 mmHg 59%
    18:00 +19°C° 0 mm 3 mps 740 mmHg 64%
    19:00 +18°C° 0 mm 3 mps 740 mmHg 67%
    20:00 +16°C° 0 mm 3 mps 741 mmHg 70%
    21:00 +15°C° 0 mm 2 mps 741 mmHg 72%
    22:00 +14°C° 0 mm 2 mps 741 mmHg 76%
    23:00 +14°C° 0 mm 2 mps 740 mmHg 80%

    2 June, Tuesday

    Time Temperature Precipitation Wind Pressure Humidity
    00:00 +13°C° 0 mm 2 mps 740 mmHg 84%
    01:00 +13°C° 0 mm 2 mps 740 mmHg 85%
    02:00 +12°C° 0 mm 2 mps 740 mmHg 86%
    03:00 +12°C° 0 mm 2 mps 740 mmHg 87%
    04:00 +13°C° 0 mm 2 mps 740 mmHg 83%
    05:00 +14°C° 0 mm 2 mps 740 mmHg 79%
    06:00 +14°C° 0 mm 3 mps 740 mmHg 76%
    07:00 +17°C° 0 mm 3 mps 740 mmHg 69%
    08:00 +19°C° 0 mm 3 mps 740 mmHg 63%
    09:00 +20°C° 0 mm 4 mps 740 mmHg 57%
    10:00 +21°C° 0 mm 4 mps 740 mmHg 53%
    11:00 +22°C° 0 mm 4 mps 739 mmHg 50%
    12:00 +24°C° 0 mm 3 mps 739 mmHg 47%
    13:00 +24°C° 0 mm 3 mps 738 mmHg 47%
    14:00 +25°C° 0 mm 3 mps 738 mmHg 47%
    15:00 +25°C° 0 mm 3 mps 737 mmHg 47%
    16:00 +24°C° 0 mm 2 mps 736 mmHg 53%
    17:00 +23°C° 0 mm 2 mps 736 mmHg 59%
    18:00 +21°C° 0 mm 2 mps 735 mmHg 66%
    19:00 +19°C° 0 mm 2 mps 735 mmHg 69%
    20:00 +17°C° 0 mm 2 mps 735 mmHg 71%
    21:00 +15°C° 0 mm 2 mps 734 mmHg 74%
    22:00 +14°C° 0 mm 2 mps 734 mmHg 76%
    23:00 +14°C° 0 mm 2 mps 733 mmHg 78%

    3 June, Wednesday

    Time Temperature Precipitation Wind Pressure Humidity
    00:00 +13°C° 0 mm 2 mps 733 mmHg 79%
    01:00 +13°C° 0 mm 2 mps 732 mmHg 80%
    02:00 +12°C° 0 mm 2 mps 732 mmHg 81%
    03:00 +12°C° 0 mm 2 mps 732 mmHg 82%
    04:00 +13°C° 0 mm 2 mps 731 mmHg 80%
    05:00 +14°C° 0 mm 2 mps 731 mmHg 77%
    06:00 +15°C° 0 mm 2 mps 731 mmHg 75%
    07:00 +17°C° 0 mm 2 mps 730 mmHg 70%
    08:00 +19°C° 0 mm 3 mps 730 mmHg 66%
    09:00 +21°C° 0 mm 3 mps 730 mmHg 62%
    10:00 +22°C° 0.4 mm 3 mps 730 mmHg 61%
    11:00 +22°C° 0.4 mm 3 mps 729 mmHg 61%
    12:00 +24°C° 0.4 mm 3 mps 729 mmHg 61%
    13:00 +24°C° 0.8 mm 3 mps 728 mmHg 61%
    14:00 +24°C° 0.8 mm 3 mps 728 mmHg 62%
    15:00 +24°C° 0.8 mm 2 mps 727 mmHg 62%
    16:00 +23°C° 0.8 mm 2 mps 727 mmHg 68%
    17:00 +22°C° 0.8 mm 1 mps 727 mmHg 75%
    18:00 +21°C° 0.8 mm 1 mps 726 mmHg 81%
    19:00 +20°C° 0.3 mm 1 mps 726 mmHg 82%
    20:00 +19°C° 0.3 mm 1 mps 726 mmHg 83%
    21:00 +18°C° 0.3 mm 1 mps 726 mmHg 84%
    22:00 +16°C° 0 mm 1 mps 726 mmHg 86%
    23:00 +16°C° 0 mm 1 mps 726 mmHg 88%
    Show more